This is the latest recevied weather packets stored in our database for station/object K5NWZ. If no packets are shown the sender has not sent any weather packets the latest 10 day(s).
| Time | Temp. | Humidity | Pressure | Rain* | Wind** | Luminosity | Snow |
|---|---|---|---|---|---|---|---|
| 1777355916 | 5° C | 79% | 1024.1 hPa | 0 mm | - | 0 W/m² | - |
| 1777355613 | 5° C | 77% | 1024.4 hPa | 0 mm | - | 0 W/m² | - |
| 1777355311 | 5° C | 81% | 1024.2 hPa | 0 mm | - | 0 W/m² | - |
| 1777355006 | 5° C | 91% | 1024.2 hPa | 0 mm | - | 0 W/m² | - |
| 1777354702 | 5° C | 92% | 1024.4 hPa | 0 mm | - | 0 W/m² | - |
| 1777354397 | 5° C | 92% | 1024.1 hPa | 0 mm | - | 0 W/m² | - |
| 1777354095 | 5° C | 92% | 1024.2 hPa | 0 mm | - | 0 W/m² | - |
| 1777353791 | 5° C | 92% | 1024.1 hPa | 0 mm | - | 0 W/m² | - |
| 1777353490 | 5° C | 92% | 1024.2 hPa | 0 mm | - | 0 W/m² | - |
| 1777353188 | 5° C | 92% | 1024.2 hPa | 0 mm | - | 0 W/m² | - |
| 1777352885 | 5° C | 92% | 1024.4 hPa | 1.78 mm | - | 0 W/m² | - |
| 1777352583 | 5° C | 92% | 1024.1 hPa | 1.78 mm | - | 0 W/m² | - |
| 1777352281 | 5.56° C | 91% | 1024.2 hPa | 0 mm | - | 0 W/m² | - |
| 1777351977 | 5.56° C | 92% | 1024.2 hPa | 0 mm | - | 0 W/m² | - |
| 1777351675 | 5.56° C | 91% | 1024.1 hPa | 0 mm | - | 0 W/m² | - |
| 1777351372 | 5.56° C | 91% | 1024.2 hPa | 0 mm | - | 0 W/m² | - |
| 1777351072 | 6.11° C | 91% | 1024.2 hPa | 0 mm | - | 0 W/m² | - |
| 1777350770 | 6.11° C | 90% | 1024.2 hPa | 1.78 mm | - | 0 W/m² | - |
| 1777350465 | 6.11° C | 89% | 1024.5 hPa | 1.78 mm | - | 0 W/m² | - |
| 1777350163 | 6.11° C | 89% | 1024.1 hPa | 1.27 mm | - | 0 W/m² | - |
| 1777349859 | 6.11° C | 89% | 1024.2 hPa | 1.27 mm | - | 0 W/m² | - |
| 1777349557 | 6.11° C | 89% | 1024.2 hPa | 0 mm | - | 0 W/m² | - |
| 1777349255 | 6.11° C | 88% | 1024.2 hPa | 0 mm | - | 0 W/m² | - |
| 1777348952 | 6.11° C | 88% | 1024.1 hPa | 0 mm | - | 0 W/m² | - |
| 1777348649 | 6.11° C | 88% | 1024.1 hPa | 0 mm | - | 0 W/m² | - |
* Rain latest hour (hover to see other rain measurements)
** Current wind speed in m/s (hover to see current wind gust speed)